Disclaimer

Please do not use the information listed here in-flight or in-navigation, as they are not provided to us by the airports but are provided by volunteers, so they might be outdated.

Search


Regions


Airport information page

Radio informations:
HANGZHOU TWR - 118.3 MHz
HANGZHOU GND - 121.75 MHz

Airport informations:
Latitude: 30° 13' 46.21" N
Longitude: 120° 26' 04.03" E
Elevation: 23 feet - 7 meters
Operating hours: N/A
Operating agency: Civil government, landing fees and diplomatic clearance may be required
Timezone: UTC+8
Fuel: Jet fuel avaiable but type is unknown.

Runway information:
07/25 - 11811 x 148 feet< - >3600 x 45 meters

Recent METARs:
ZSHC 152130Z 01004MPS 330V040 9999 BKN020 04/00 Q1031 NOSIG
ZSHC 152200Z 01003MPS 340V040 9999 SCT020 04/00 Q1031 NOSIG
ZSHC 152230Z 02004MPS 9999 SCT020 04/M01 Q1031 NOSIG

Airport on the map: